Carmi, IL

4:05 AM CST on February 23, 2017 (GMT -0600)
Carmi Municipal

Weather History for KCUL - September, 2013

Change the Weather History Date:

Monday, September 9, 2013

  Actual Average (KEHR) Record (KEHR)
Temperature  
Mean Temperature 82 °F -  
Max Temperature 95 °F 83 °F 102 °F (1939)
Min Temperature 69 °F 62 °F 45 °F (1943)
Cooling Degree Days 16    
Growing Degree Days 32 (Base 50)    
Moisture  
Dew Point 72 °F    
Average Humidity 76    
Maximum Humidity 95    
Minimum Humidity 45    
Precipitation  
Precipitation 0.00 in - - ()
Sea Level Pressure  
Sea Level Pressure 29.97 in    
Wind  
Wind Speed 3 mph (South)    
Max Wind Speed 10 mph    
Max Gust Speed -    
Visibility 7 miles    
Events Fog    
Averages and records for this station are not official NWS values.
T = Trace of Precipitation, MM = Missing Value Source: NWS Daily Summary

Daily Weather History Graph

Daily Weather History Graph

Search for Another Location

Airport or City:

Trip Planner

Search our weather history database for the weather conditions in past years. The results will help you decide how hot, cold, wet, or windy it might be!

Date:

Astronomy

Sep. 09, 2013 Rise Set
Actual Time 6:29 AM CDT 7:09 PM CDT
Civil Twilight 6:02 AM CDT 7:35 PM CDT
Nautical Twilight 5:31 AM CDT 8:07 PM CDT
Astronomical Twilight 4:58 AM CDT 8:39 PM CDT
Moon 10:45 AM CDT (9/9) 9:30 PM CDT (9/9)
Length of Visible Light 13h 33m
Length of Day
12h 40m
Waxing Crescent, 19% of the Moon is Illuminated
Sep 9
Waxing Crescent
Sep 12
First Quarter
Sep 19
Full
Sep 26
Last Quarter
Oct 4
New

Hourly Weather History & Observations

Time (CDT) Temp. Heat Index Dew Point Humidity Pressure Visibility Wind Dir Wind Speed Gust Speed Precip Events Conditions
12:15 AM 70.2 °F - 68.5 °F 95% 29.96 in 1.5 mi Calm Calm - N/A   Mist
12:35 AM 70.2 °F - 68.5 °F 95% 29.96 in 0.2 mi Calm Calm - N/A Fog Fog
12:55 AM 70.3 °F - 68.7 °F 95% 29.96 in 0.5 mi Calm Calm - N/A Fog Fog
1:15 AM 71.1 °F - 69.6 °F 95% 29.96 in 3.0 mi SE 3.5 mph - N/A   Mostly Cloudy
1:35 AM 71.6 °F - 70.0 °F 95% 29.96 in 3.0 mi SE 3.5 mph - N/A   Overcast
1:55 AM 71.6 °F - 70.0 °F 95% 29.96 in 2.5 mi Calm Calm - N/A   Mostly Cloudy
2:15 AM 72.5 °F - 70.9 °F 95% 29.96 in 3.0 mi Calm Calm - N/A   Overcast
2:35 AM 72.7 °F - 70.9 °F 94% 29.96 in 3.0 mi Calm Calm - N/A   Overcast
2:55 AM 72.5 °F - 70.7 °F 94% 29.96 in 3.0 mi Calm Calm - N/A   Mostly Cloudy
3:15 AM 71.8 °F - 69.8 °F 93% 29.95 in 3.0 mi SE 3.5 mph - N/A   Scattered Clouds
3:35 AM 71.8 °F - 70.0 °F 94% 29.96 in 3.0 mi SSE 3.5 mph - N/A   Clear
3:55 AM 70.9 °F - 69.1 °F 94% 29.96 in 2.5 mi Calm Calm - N/A   Overcast
4:15 AM 72.0 °F - 70.3 °F 95% 29.96 in 4.0 mi Calm Calm - N/A   Mostly Cloudy
4:35 AM 72.5 °F - 70.7 °F 94% 29.97 in 5.0 mi Calm Calm - N/A   Overcast
4:55 AM 71.6 °F - 69.8 °F 94% 29.97 in 4.0 mi Calm Calm - N/A   Overcast
5:15 AM 71.6 °F - 69.8 °F 94% 29.97 in 4.0 mi Calm Calm - N/A   Mostly Cloudy
5:35 AM 72.1 °F - 70.3 °F 94% 29.97 in 4.0 mi Calm Calm - N/A   Mostly Cloudy
5:55 AM 71.8 °F - 70.0 °F 94% 29.97 in 4.0 mi Calm Calm - N/A   Scattered Clouds
6:15 AM 71.2 °F - 69.4 °F 94% 29.97 in 4.0 mi SE 3.5 mph - N/A   Scattered Clouds
6:35 AM 71.1 °F - 69.4 °F 95% 29.97 in 4.0 mi SSE 3.5 mph - N/A   Clear
6:55 AM 69.8 °F - 68.0 °F 94% 29.98 in 2.0 mi Calm Calm - N/A   Clear
7:15 AM 71.4 °F - 69.6 °F 94% 29.98 in 2.5 mi Calm Calm - N/A   Scattered Clouds
7:35 AM 73.6 °F - 71.6 °F 93% 29.98 in 3.0 mi South 3.5 mph - N/A   Clear
7:55 AM 75.0 °F - 72.1 °F 91% 29.99 in 5.0 mi Calm Calm - N/A   Clear
8:15 AM 76.5 °F - 72.7 °F 88% 29.99 in 5.0 mi SSE 4.6 mph - N/A   Clear
8:35 AM 78.1 °F - 73.4 °F 85% 29.99 in 7.0 mi SSE 5.8 mph - N/A   Scattered Clouds
8:55 AM 79.9 °F - 73.4 °F 80% 30.00 in 7.0 mi South 8.1 mph - N/A   Clear
9:15 AM 81.5 °F 86.9 °F 73.6 °F 77% 30.00 in 10.0 mi South 6.9 mph - N/A   Clear
9:35 AM 83.1 °F 89.5 °F 73.8 °F 73% 30.00 in 10.0 mi South 8.1 mph - N/A   Clear
9:55 AM 84.6 °F 92.4 °F 74.5 °F 72% 30.01 in 10.0 mi SSW 5.8 mph - N/A   Scattered Clouds
10:15 AM 86.4 °F 93.4 °F 73.0 °F 64% 30.00 in 10.0 mi SW 3.5 mph - N/A   Scattered Clouds
10:35 AM 87.1 °F 94.9 °F 73.4 °F 64% 30.00 in 10.0 mi WSW 4.6 mph - N/A   Mostly Cloudy
10:55 AM 85.1 °F 92.2 °F 73.6 °F 68% 30.01 in 10.0 mi SW 5.8 mph - N/A   Mostly Cloudy
11:15 AM 86.2 °F 93.8 °F 73.8 °F 66% 30.01 in 10.0 mi SSW 6.9 mph - N/A   Mostly Cloudy
11:35 AM 88.7 °F 95.2 °F 71.8 °F 57% 30.00 in 10.0 mi SSW 6.9 mph - N/A   Mostly Cloudy
11:55 AM 89.1 °F 96.0 °F 72.1 °F 57% 30.00 in 10.0 mi South 6.9 mph - N/A   Scattered Clouds
12:15 PM 90.5 °F 97.0 °F 71.2 °F 53% 29.99 in 10.0 mi South 6.9 mph - N/A   Clear
12:35 PM 91.4 °F 97.8 °F 71.2 °F 51% 29.99 in 10.0 mi South 8.1 mph - N/A   Clear
12:55 PM 92.1 °F 99.4 °F 71.8 °F 51% 29.98 in 10.0 mi SW 8.1 mph - N/A   Clear
1:15 PM 92.5 °F 98.4 °F 70.0 °F 48% 29.98 in 10.0 mi South 6.9 mph - N/A   Clear
1:35 PM 93.0 °F 100.1 °F 71.1 °F 49% 29.98 in 10.0 mi SSW 6.9 mph - N/A   Clear
1:55 PM 93.4 °F 99.7 °F 70.5 °F 47% 29.97 in 10.0 mi SW 5.8 mph - N/A   Clear
2:15 PM 94.1 °F 100.6 °F 70.5 °F 46% 29.97 in 10.0 mi South 5.8 mph - N/A   Clear
2:35 PM 94.5 °F 100.8 °F 70.2 °F 45% 29.96 in 10.0 mi SSW 6.9 mph - N/A   Clear
2:55 PM 94.6 °F 103.0 °F 72.0 °F 48% 29.95 in 10.0 mi SSW 6.9 mph - N/A   Clear
3:15 PM 94.3 °F 102.2 °F 71.8 °F 48% 29.94 in 10.0 mi SSE 6.9 mph - N/A   Clear
3:35 PM 94.5 °F 100.8 °F 70.2 °F 45% 29.94 in 10.0 mi South 5.8 mph - N/A   Clear
3:55 PM 94.3 °F 101.6 °F 71.4 °F 47% 29.94 in - SSW 9.2 mph - N/A   Unknown
4:15 PM 94.1 °F 101.8 °F 71.6 °F 48% 29.94 in 10.0 mi South 8.1 mph - N/A   Clear
4:35 PM 93.2 °F 101.1 °F 72.3 °F 50% 29.94 in 10.0 mi South 9.2 mph - N/A   Clear
4:55 PM 92.8 °F 101.5 °F 73.0 °F 52% 29.94 in 10.0 mi South 8.1 mph - N/A   Clear
5:15 PM 92.3 °F 101.5 °F 73.6 °F 54% 29.94 in 10.0 mi South 10.4 mph - N/A   Clear
5:35 PM 91.6 °F 99.9 °F 72.9 °F 54% 29.94 in 10.0 mi South 9.2 mph - N/A   Clear
5:55 PM 90.5 °F 99.2 °F 73.6 °F 57% 29.94 in 10.0 mi SSE 8.1 mph - N/A   Clear
6:15 PM 89.6 °F 98.2 °F 73.4 °F 59% 29.95 in 10.0 mi SSE 5.8 mph - N/A   Clear
6:35 PM 87.8 °F 96.6 °F 74.3 °F 64% 29.95 in 10.0 mi SSE 4.6 mph - N/A   Clear
6:55 PM 85.6 °F 94.2 °F 74.7 °F 70% 29.96 in 10.0 mi SSE 4.6 mph - N/A   Clear
7:15 PM 83.7 °F 91.3 °F 74.8 °F 75% 29.96 in 10.0 mi South 4.6 mph - N/A   Clear
7:35 PM 82.2 °F 88.8 °F 74.7 °F 78% 29.97 in 10.0 mi South 4.6 mph - N/A   Clear
7:55 PM 80.6 °F 86.2 °F 75.2 °F 84% 29.97 in 10.0 mi South 4.6 mph - N/A   Clear
8:15 PM 79.7 °F - 74.8 °F 85% 29.97 in 7.0 mi South 3.5 mph - N/A   Clear
8:35 PM 79.2 °F - 75.2 °F 88% 29.98 in 7.0 mi South 4.6 mph - N/A   Clear
8:55 PM 78.8 °F - 74.7 °F 87% 29.98 in 7.0 mi South 5.8 mph - N/A   Clear
9:15 PM 79.3 °F - 74.5 °F 85% 29.99 in 7.0 mi South 6.9 mph - N/A   Clear
9:35 PM 78.6 °F - 73.9 °F 85% 30.00 in 7.0 mi South 3.5 mph - N/A   Clear
9:55 PM 77.9 °F - 73.8 °F 87% 30.00 in 7.0 mi SSE 3.5 mph - N/A   Clear
10:15 PM 77.5 °F - 73.6 °F 88% 30.00 in 7.0 mi SSE 3.5 mph - N/A   Scattered Clouds
10:35 PM 78.1 °F - 74.3 °F 88% 30.00 in 7.0 mi SSE 4.6 mph - N/A   Mostly Cloudy
10:55 PM 78.6 °F - 73.9 °F 85% 30.00 in 7.0 mi SSE 5.8 mph - N/A   Mostly Cloudy
11:15 PM 77.9 °F - 73.8 °F 87% 30.01 in 7.0 mi South 4.6 mph - N/A   Mostly Cloudy
11:35 PM 77.4 °F - 73.9 °F 89% 30.01 in 7.0 mi SSE 4.6 mph - N/A   Overcast
11:55 PM 77.9 °F - 74.3 °F 89% 30.01 in 7.0 mi SSE 3.5 mph - N/A   Mostly Cloudy